Sault Ste Marie, MI

6:24 PM EDT on October 19, 2017 (GMT -0400)
Sault Ste Marie Municipal / Sanderson Field

Weather History for KANJ - January, 2014

Change the Weather History Date:

Friday, January 17, 2014

  Actual Average Record
Temperature  
Mean Temperature 23 °F 15 °F  
Max Temperature 29 °F 23 °F 44 °F (1913)
Min Temperature 17 °F 7 °F -24 °F (1982)
Degree Days  
Heating Degree Days 42 50  
Month to date heating degree days 857 838  
Since 1 July heating degree days 4372 4097  
Moisture  
Dew Point 20 °F    
Average Humidity 85    
Maximum Humidity 92    
Minimum Humidity 77    
Precipitation  
Precipitation 0.06 in 0.07 in 0.59 in (1897)
Month to date precipitation 1.19 1.28  
Year to date precipitation 1.19 1.28  
Snow  
Snow 0.60 in 1.00 in 7.60 in (1979)
Month to date snowfall 15.5 17.8  
Since 1 July snowfall 70.2 68.0  
Snow Depth 19.00 in    
Sea Level Pressure  
Sea Level Pressure 29.67 in    
Wind  
Wind Speed 6 mph (NNW)    
Max Wind Speed 15 mph    
Max Gust Speed 19 mph    
Visibility 5 miles    
Events Snow    
T = Trace of Precipitation, MM = Missing Value Source: NWS Daily Summary

Daily Weather History Graph

Daily Weather History Graph

Search for Another Location

Airport or City:

Trip Planner

Search our weather history database for the weather conditions in past years. The results will help you decide how hot, cold, wet, or windy it might be!

Date:

Astronomy

Jan. 17, 2014 Rise Set
Actual Time 8:15 AM EST 5:19 PM EST
Civil Twilight 7:42 AM EST 5:53 PM EST
Nautical Twilight 7:04 AM EST 6:30 PM EST
Astronomical Twilight 6:28 AM EST 7:06 PM EST
Moon 7:14 PM EST (1/17) 8:35 AM EST (1/17)
Length of Visible Light 10h 11m
Length of Day
9h 04m
Full, 98% of the Moon is Illuminated
Jan 17
Full
Jan 24
Last Quarter
Jan 30
New
Feb 6
First Quarter
Feb 14
Full

Hourly Weather History & Observations

Time (EST) Temp. Windchill Dew Point Humidity Pressure Visibility Wind Dir Wind Speed Gust Speed Precip Events Conditions
12:36 AM 24.1 °F 17.0 °F 21.0 °F 88% 29.60 in 5.0 mi East 5.8 mph - 0.00 in Snow Light Snow
12:46 AM 24.1 °F 18.2 °F 21.0 °F 88% 29.60 in 4.0 mi East 4.6 mph - 0.00 in Snow Light Snow
12:55 AM 24.1 °F 17.0 °F 21.0 °F 88% 29.63 in 3.0 mi East 5.8 mph - 0.00 in Snow Light Snow
1:13 AM 24.1 °F 19.7 °F 21.0 °F 88% 29.59 in 2.5 mi East 3.5 mph - 0.01 in Snow Light Snow
1:20 AM 24.1 °F 17.0 °F 21.9 °F 91% 29.59 in 1.8 mi East 5.8 mph - 0.01 in Snow Light Snow
1:55 AM 24.1 °F 18.2 °F 21.9 °F 91% 29.62 in 2.0 mi ENE 4.6 mph - 0.02 in Snow Light Snow
2:15 AM 24.1 °F 18.2 °F 21.9 °F 91% 29.60 in 2.0 mi ENE 4.6 mph - 0.00 in Snow Light Snow
2:28 AM 24.1 °F 19.7 °F 21.9 °F 91% 29.60 in 2.0 mi ENE 3.5 mph - 0.01 in Snow Light Snow
2:55 AM 24.1 °F 19.7 °F 21.9 °F 91% 29.62 in 2.0 mi ENE 3.5 mph - 0.01 in Snow Light Snow
3:02 AM 24.1 °F 19.7 °F 21.9 °F 91% 29.59 in 1.5 mi ENE 3.5 mph - 0.00 in Snow Light Snow
3:55 AM 24.1 °F 19.7 °F 21.9 °F 91% 29.62 in 1.5 mi ENE 3.5 mph - 0.01 in Snow Light Snow
4:09 AM 24.1 °F 19.7 °F 21.9 °F 91% 29.59 in 2.5 mi ENE 3.5 mph - 0.01 in Snow Light Snow
4:12 AM 24.1 °F 19.7 °F 21.0 °F 88% 29.59 in 3.0 mi ENE 3.5 mph - 0.01 in Snow Light Snow
4:55 AM 23.0 °F - 19.9 °F 88% 29.62 in 4.0 mi Calm Calm - 0.01 in   Overcast
5:55 AM 23.0 °F 18.4 °F 19.9 °F 88% 29.63 in 4.0 mi NE 3.5 mph - 0.00 in   Overcast
6:37 AM 21.9 °F - 19.9 °F 92% 29.60 in 4.0 mi Calm Calm - N/A   Overcast
6:46 AM 21.9 °F - 19.0 °F 89% 29.61 in 4.0 mi Calm Calm - N/A   Overcast
6:55 AM 21.9 °F - 19.9 °F 92% 29.64 in 5.0 mi Calm Calm - N/A   Overcast
7:02 AM 21.9 °F 17.2 °F 19.9 °F 92% 29.62 in 5.0 mi North 3.5 mph - N/A   Overcast
7:55 AM 24.1 °F 18.2 °F 19.9 °F 84% 29.65 in 2.5 mi North 4.6 mph - 0.00 in Snow Light Snow
8:03 AM 24.1 °F 19.7 °F 19.9 °F 84% 29.62 in 3.0 mi North 3.5 mph - 0.00 in Snow Light Snow
8:55 AM 24.1 °F 18.2 °F 21.0 °F 88% 29.66 in 6.0 mi North 4.6 mph - 0.00 in   Overcast
9:55 AM 25.0 °F - 21.9 °F 88% 29.68 in 2.5 mi Calm Calm - 0.00 in Snow Light Snow
10:20 AM 26.1 °F - 21.9 °F 84% 29.65 in 3.0 mi Calm Calm - 0.00 in Snow Light Snow
10:32 AM 26.1 °F - 21.9 °F 84% 29.66 in 4.0 mi Calm Calm - 0.00 in Snow Light Snow
10:55 AM 26.1 °F 21.9 °F 21.9 °F 84% 29.69 in 4.0 mi NW 3.5 mph - 0.00 in   Overcast
11:08 AM 26.1 °F - 21.9 °F 84% 29.67 in 1.8 mi Calm Calm - 0.00 in Snow Light Snow
11:31 AM 27.0 °F - 23.0 °F 85% 29.67 in 1.2 mi Calm Calm - 0.00 in Snow Light Snow
11:55 AM 27.0 °F - 23.0 °F 85% 29.69 in 3.0 mi Calm Calm - 0.01 in Snow Light Snow
12:03 PM 27.0 °F - 23.0 °F 85% 29.66 in 4.0 mi Calm Calm - 0.00 in   Overcast
12:43 PM 28.0 °F 24.2 °F 23.0 °F 81% 29.65 in 9.0 mi West 3.5 mph - 0.00 in   Overcast
12:55 PM 28.0 °F 24.2 °F 23.0 °F 81% 29.68 in 5.0 mi WNW 3.5 mph - 0.00 in Snow Light Snow
1:04 PM 28.0 °F 21.7 °F 23.0 °F 81% 29.65 in 4.0 mi WNW 5.8 mph - 0.00 in Snow Light Snow
1:33 PM 28.9 °F 22.8 °F 23.0 °F 78% 29.65 in 7.0 mi West 5.8 mph - 0.00 in   Overcast
1:55 PM 28.0 °F 20.0 °F 23.0 °F 81% 29.68 in 10.0 mi West 8.1 mph - 0.00 in   Overcast
2:55 PM 28.0 °F 19.3 °F 21.0 °F 75% 29.69 in 8.0 mi WNW 9.2 mph - 0.00 in Snow Light Snow
3:42 PM 26.1 °F 15.0 °F 21.0 °F 81% 29.69 in 5.0 mi NW 12.7 mph - 0.00 in Snow Light Snow
3:55 PM 25.0 °F 14.8 °F 21.0 °F 85% 29.72 in 8.0 mi WNW 10.4 mph - 0.00 in   Overcast
4:24 PM 24.1 °F 13.1 °F 19.9 °F 84% 29.70 in 10.0 mi WNW 11.5 mph - N/A   Overcast
4:52 PM 23.0 °F 12.4 °F 19.4 °F 86% 29.72 in 6.0 mi WNW 10.4 mph - 0.00 in   Overcast
4:55 PM 23.0 °F 11.7 °F 19.0 °F 85% 29.75 in 6.0 mi WNW 11.5 mph - 0.00 in   Overcast
5:24 PM 23.0 °F 12.4 °F 18.0 °F 81% 29.71 in 10.0 mi WNW 10.4 mph 19.6 mph N/A   Overcast
5:55 PM 21.9 °F 11.0 °F 18.0 °F 85% 29.75 in 10.0 mi WNW 10.4 mph - N/A   Overcast
6:10 PM 21.9 °F 9.8 °F 18.0 °F 85% 29.73 in 10.0 mi West 12.7 mph 18.4 mph N/A   Overcast
6:38 PM 21.0 °F 9.9 °F 17.1 °F 85% 29.73 in 10.0 mi West 10.4 mph - N/A   Overcast
6:55 PM 21.0 °F 9.9 °F 17.1 °F 85% 29.77 in 10.0 mi WNW 10.4 mph - N/A   Overcast
7:55 PM 19.9 °F 7.9 °F 16.0 °F 85% 29.78 in 10.0 mi WNW 11.5 mph - N/A   Overcast
8:13 PM 19.9 °F 7.3 °F 16.0 °F 85% 29.76 in 10.0 mi WNW 12.7 mph - N/A   Overcast
8:50 PM 19.4 °F 8.6 °F 14.0 °F 80% 29.77 in 10.0 mi WNW 9.2 mph - N/A   Overcast
8:55 PM 19.0 °F 6.8 °F 14.0 °F 81% 29.80 in 10.0 mi WNW 11.5 mph - N/A   Overcast
9:55 PM 18.0 °F 7.7 °F 14.0 °F 84% 29.81 in 10.0 mi WNW 8.1 mph - N/A   Overcast
10:55 PM 18.0 °F 9.8 °F 14.0 °F 84% 29.80 in 7.0 mi WNW 5.8 mph - N/A   Overcast
11:55 PM 17.1 °F 7.6 °F 14.0 °F 88% 29.79 in 5.0 mi NW 6.9 mph - N/A   Overcast